Location: LDNL
(36.4545°S, 141.6685°E)
Time: 12:44:10
(UTC+10:00)

Explorer 7 - Pass Details

Date: 19 August 2022
Orbit: 482 x 668 km, 50.3° (Epoch: 26 September)

Event Time Altitude Azimuth Distance (km) Brightness Sun altitude
Rises 22:59:16 0° 235° (SW) 2,935 - -57.7°
Reaches altitude 10° 23:01:42 10° 239° (WSW) 1,993 - -58.0°
Maximum altitude 23:06:09 55° 316° (NW) 718 - -58.7°
Drops below altitude 10° 23:10:19 10° 33° (NNE) 1,855 - -59.3°
Sets 23:12:30 0° 38° (NE) 2,712 - -59.6°
